Miscellaneous Local Product
Issued by NWS North Platte, NE

Home | Current Version | Previous Version | Text Only | Print | Product List | Glossary On
Versions: 1 2 3 4 5 6 7 8 9 10 11 12 13 14 15 16 17 18 19 20 21 22 23 24 25 26 27 28 29 30 31 32 33 34 35 36 37 38 39 40 41 42 43 44 45 46 47 48 49 50
000
AXUS43 KLBF 060110
MISLBF


WESTERN AND NORTH CENTRAL NEBRASKA HOURLY WEATHER ROUNDUP
NATIONAL WEATHER SERVICE NORTH PLATTE NE
700 PM CST THU MAR 05 2015

***STATIONS NOT REPORTING VARIABLES SUCH AS SKY/WEATHER OR
PRESSURE ARE PROVIDED BY THE NEBRASKA DEPARTMENT OF
ROADS...RAWS...AND APRS NETWORKS...AND ARE NOT UNDER
NATIONAL WEATHER SERVICE QUALITY CONTROL***

...OBSERVATIONS IN AND NEAR THE EASTERN PANHANDLE OF NEBRASKA...

CITY           SKY/WX    TMP DP  RH WIND       PRES   REMARKS
PINE RIDGE     CLEAR     37  22  54 W6        30.16R WCI  32
CHADRON        CLEAR     36  22  56 W17       30.18R WCI  26
ALLIANCE       CLEAR     36  11  35 NW10      30.18R WCI  28
SIDNEY         PTCLDY    35  15  44 W6        30.22R WCI  30
WHITECLAY        N/A     37  20  50 W15         N/A  WCI  27
CRESCENT LAKE    N/A     38   8  28 NW8G18      N/A  WCI  32
LISCO            N/A     36   8  30 W9          N/A  WCI  29
BIG SPRINGS      N/A     32  15  49 SW5         N/A  WCI  27
LEWELLEN         N/A     36   1  23 W9          N/A  WCI  29
$$

...OBSERVATIONS IN NORTH CENTRAL NEBRASKA...

CITY           SKY/WX    TMP DP  RH WIND       PRES   REMARKS
VALENTINE      PTCLDY    34  13  41 W7        30.15R WCI  28
THEDFORD       PTCLDY    38  11  32 W6        30.17R WCI  34
AINSWORTH      PTCLDY    33   8  34 SW5       30.15S WCI  29
O`NEILL        CLOUDY    36   8  31 SE7       30.19S WCI  30
ORD            PTCLDY    32   8  36 S6        30.21R WCI  26
BROKEN BOW     CLEAR     36  11  35 E7        30.18S WCI  30
BROWNLEE         N/A     39   1  20 W7          N/A  WCI  34
SPRINGVIEW       N/A     37  13  36 CALM        N/A
BREWSTER         N/A     39   7  26 CALM        N/A
ROSE             N/A     41  10  28 CALM        N/A
NEWPORT          N/A     36  12  38 CALM        N/A
SARGENT          N/A     35  13  41 S3          N/A
COMSTOCK         N/A     37  11  34 S12         N/A  WCI  30
CHAMBERS         N/A     35   7  31 S3          N/A
EWING            N/A     32  11  41 SE3         N/A
$$

...OBSERVATIONS IN SOUTHWEST NEBRASKA AND FAR NORTHEAST COLORADO...

CITY           SKY/WX    TMP DP  RH WIND       PRES   REMARKS
WRAY           FAIR      35  15  44 W8        30.24R WCI  29
HOLYOKE        FAIR      41  14  33 NW5       30.23R
IMPERIAL         N/A     39  11  31 NW7       30.22R WCI  34
OGALLALA       CLEAR     32  10  39 NW6       30.20R WCI  26
NORTH PLATTE   CLEAR     35   8  32 W3        30.19R
MCCOOK         CLEAR     42  12  29 W7        30.23R
LEXINGTON      CLEAR     35  10  35 S9        30.21S WCI  27
PAXTON           N/A     41  15  34 W3          N/A
BRADY            N/A     43  11  26 CALM        N/A
GOTHENBURG       N/A     42  13  30 SW5         N/A
CALLAWAY         N/A     37  10  33 CALM        N/A
$$

...NORTH PLATTE AREA...

CITY           SKY/WX    TMP DP  RH WIND       PRES   REMARKS
AIRPORT        CLEAR     35   8  32 W3        30.19R
DOWNTOWN         N/A     42  11  27 CALM        N/A
$$

...SOME WEATHER OBSERVATIONS FROM AROUND THE REGION...

CITY           SKY/WX    TMP DP  RH WIND       PRES   REMARKS
DENVER         MOCLDY    31  18  58 W3        30.22R
LARAMIE        CLEAR     26  13  57 W16       30.21R WCI  14
CHEYENNE       CLEAR     32  15  49 S9        30.21R WCI  24
SCOTTSBLUFF    CLEAR     36  16  44 W6        30.21R WCI  31
RAPID CITY     CLEAR     33  18  53 N13       30.11S WCI  24
PIERRE         CLEAR     28  17  63 S9        30.11S WCI  19
WINNER         FAIR      39  15  37 SW7       30.14S WCI  34
SIOUX FALLS    PTCLDY    27   6  41 S13       30.25F WCI  16
OMAHA          PTCLDY    28   7  41 S14       30.40F WCI  17
GRAND ISLAND   CLEAR     32   8  36 S7        30.27S WCI  26
KANSAS CITY    PTCLDY    27   5  39 SE7       30.48S WCI  19
WICHITA        PTCLDY    38  12  34 S6        30.41S WCI  33
HAYS           MOCLDY    37   5  25 S8        30.31S WCI  31
LIBERAL        CLEAR     36  18  48 S9        30.33F WCI  29
GOODLAND       MOCLDY    39  15  37 SW12      30.26R WCI  32
$$



USA.gov is the U.S. government's official web portal to all federal, state and local government web resources and services.